User: anonymous   Login
Location: Mentone
(34.5413°N, 85.5351°W)
Time: 22:22:11
(UTC-06:00)
Language:

S-56A Canister/Altair - Orbit

View from above orbital plane
View from above orbital plane
View from above satellite
View from above satellite

Ground track
Ground track

The orbit data is extracted from the following two-line orbital elements,

1 00082U 61004B   17020.37794372  .00000053  00000-0  74049-4 0  9999
2 00082  38.8563 124.0343 1167926 200.4934 154.4890 12.25807341655129
Epoch (UTC): 20 January 2017 09:04:14
Eccentricity: 0.1167926
inclination: 38.8563°
perigee height: 639 km
apogee height: 2495 km
right ascension of ascending node: 124.0343°
argument of perigee: 200.4934°
revolutions per day: 12.25807341
mean anomaly at epoch: 154.4890°
orbit number at epoch: 65512

The dashed part of the orbit path shows where the satellite is in the earth's shadow,  

DLR